THORAD DELTA 1 DEB

Satellite information

Favourite Embed

Satellite Type and Status

DEBRISIN ORBIT

Key statistics

Satellite THORAD DELTA 1 DEB at a glance.

Uptime

18664

Days in orbit

Revolutions

≈ 12.7

Per day

Orbit

SSO

Sun Synchronous Orbit

Inclination

101.6

Latest

Satellite identification and parameters

Extended collection of information and parameters for THORAD DELTA 1 DEB.

Object identification

Identified? True

Debris? True

Object name: THORAD DELTA 1 DEB

International designator: 1974-089GD

Object number (NORAD): 42612

Object ID (CCSDS): 42612

Country: UNITED STATES OF AMERICA (US)

Current information (Y/N): Y

RCS size: SMALL

Orbital parameters

Period: 113.398 minutes

Inclination: 101.6083 deg

SMA: 7760.628 km

Apoapsis: 1448.049 km

Periapsis: 1316.937 km

RAAN: 341.7889 deg

Eccentricy: 0.00844724

Argument of periapsis: 57.3043 deg

Mean anomaly: 303.615 deg

Mean motion: 12.69864768 rev/day

Mean motion (dot): 0.000001 rev/day2

B* drag term: 0.00072651269 1/REarth

Two-line elements (TLE)

Creation date: Dec. 15, 2025, 4:20 a.m.

Reference frame: TEME

Reference center: EARTH

Epoch: Dec. 14, 2025, 5:17 p.m. UTC

TLE line 0: 0 THORAD DELTA 1 DEB

TLE line 1: 1 42612U 74089GD 25348.72017919 .00000100 00000-0 72651-3 0 9996

TLE line 2: 2 42612 101.6083 341.7889 0084472 57.3043 303.6150 12.69864768539241

Live tracking on map

Real-time ground track for satellite THORAD DELTA 1 DEB.

In-orbit conjunctions

A list of the most updated potential collisions computed for object THORAD DELTA 1 DEB.

Target Orbit TCA Probability of collision Miss distance Type
COSMOS 939 LEO 2024-07-11 12:11:57 0.0001028634 301.0 (m) PAYLOAD

Associated space launch

Meteorological satellite using radiometric imaging

THORAD DELTA 1 DEB was lifted into orbit during the mission ‘Delta 2310 | NOAA 4’, on board a Delta 2310 space rocket.

The launch took place on Nov. 15, 1974, 5:11 p.m. from Space Launch Complex 2W.

For more information about the launch, click the button.

Launch to space Delta 2310 | NOAA 4
Delta 2310 | NOAA 4

Agency: N/A

Status: Launch Successful

Launch date: Nov. 15, 1974, 5:11 p.m. UTC

Rocket: Delta 2310

Launch pad: Space Launch Complex 2W

Location: Vandenberg SFB, CA, USA

...

Latest news about this satellite

There are no fresh news available about this satellite. Check back as we update our databases every day.


Newsletter sign-up

Weekly statistics, charts and insights to help you stay on top of the space industry.